sat.trackr.live / text

‹ back to catalog

STARLINK-11102 [DTC]

NORAD 60065 · 2024-113G

PAYLOAD ACTIVE UNKNOWN

§ Identity

Operator
Country
US
Launch date
2024-06-19
Launch site
AFWTR
Launch vehicle
Mass (kg)
RCS (m²)

Purposes: comms

External: N2YO · Heavens-Above · Gunter

§ Orbital elements

Epoch: 2026-05-25T02:10:05.649888Z

Period
91.74 min
Inclination
53.1587°
Eccentricity
0.0001049
Mean motion
15.69696295 rev/d
Perigee alt
359.1 km
Apogee alt
360.5 km
Semi-major
6,737.9 km
B*
3.2332e-5
RAAN
174.3732°
Arg perigee
82.4797°
Mean anomaly
277.6340°
Rev number
11,156

§ Raw data

STARLINK-11102 [DTC]1 60065U 24113G   26145.09034317  .00003328  00000+0  32332-4 0  99952 60065  53.1587 174.3732 0001049  82.4797 277.6340 15.69696295111567

JSON: /api/v1/satellites/60065 · /tle

For live sub-satellite position, see the globe view (requires WebGL).

§ Visibility from observer

Set your observer location to see the next 7 days of passes ≥ 10°. The values pass through the URL so the page stays shareable.

No JS? Fill the form by hand. The geolocation button needs JavaScript.